Regional Weather Roundup
Issued by NWS Newport/Morehead, NC

Current Version | Previous Version | Graphics & Text | Print | Product List | Glossary On
Versions: 1 2 3 4 5 6 7 8 9 10 11 12 13 14 15 16 17 18 19 20 21 22 23 24 25 26 27 28 29 30 31 32 33 34 35 36 37 38 39 40 41 42 43 44 45 46 47 48 49 50
000 ASUS42 KMHX 242214 RWRMHX WEATHER ROUNDUP FOR EASTERN NORTH CAROLINA NATIONAL WEATHER SERVICE NEWPORT/MOREHEAD CITY NC 500 PM EST FRI NOV 24 2017 NOTE: "FAIR" INDICATES FEW OR NO CLOUDS BELOW 12,000 FEET WITH NO SIGNIFICANT WEATHER AND/OR OBSTRUCTIONS TO VISIBILITY NCZ015>017-031-032-045>047-102-103-242300- NORTH COAST CITY SKY/WX TMP DP RH WIND PRES REMARKS EDENTON CLEAR 52 40 64 CALM 29.99S ELIZABETH CITY CLEAR 50 42 74 NE7 29.99S KITTY HAWK CLEAR 53 45 74 CALM 29.96S MANTEO CLEAR 52 46 79 NE8 29.98R $$ NCZ045>047-081-094-103-104-242300- CENTRAL COAST CITY SKY/WX TMP DP RH WIND PRES REMARKS FRISCO PTCLDY 56 52 86 VRB7 29.92S $$ NCZ095-097-098-100-101-242300- SOUTHERN COAST CITY SKY/WX TMP DP RH WIND PRES REMARKS BEAUFORT CLOUDY 53 46 77 N12 29.94R CEDAR ISLAND NOT AVBL JACKSONVILLE CLOUDY 56 41 57 N9 29.94S PINEY ISLAND N/A N/A N/A N/A N13 29.94S WILMINGTON MOCLDY 56 39 53 N7 29.94R $$ NCZ011>013-027>030-043-044-078>080-089-090>093-098-242300- COASTAL PLAIN CITY SKY/WX TMP DP RH WIND PRES REMARKS AHOSKIE CLEAR 50 33 52 CALM 29.99S CLINTON CLEAR 55 32 42 N3 29.96F ELIZABETHTOWN NOT AVBL GOLDSBORO CLEAR 53 30 41 N5 29.95S GREENVILLE CLEAR 50 34 53 N5 29.99S HAVELOCK NOT AVBL KENANSVILLE MOCLDY 54 32 43 CALM 29.96S KINSTON MOCLDY 50 36 57 CALM 29.98R NEW BERN CLOUDY 53 41 63 N7 29.97R RICHLANDS CLOUDY 54 38 54 N5 29.95S ROCKY MOUNT CLEAR 49 32 52 CALM 29.98S WASHINGTON CLEAR 52 40 62 NE3 29.98S WHITEVILLE PTCLDY 56 30 37 CALM 29.94S $$ AMZ130-135-150-152-154-156-158-170-250-252-270-ANZ085-086-088-633-658-670-242300- MARINE OBSERVATIONS STATION/POSITION TIME TEMP WIND PRES WAVE SWELL AIR SEA DIR/SP/G HT/PER HT/PER (UTC) (F) (DEG/KT/KT) (MB) (FT/S) (FT/S) CHESAPEAKE LIGHT NOT AVBL 64 E VA BEACH 2150 56 61 40/ 10/ 12 1015.6 4/10 5/10 DUCK 2142 54 57 30/ 11/ 14 1014.6 2 E DUCK 2200 59 N/A 4/ 9 2/11 OREGON INLET 2148 20/ 11/ 15 1014.4 13E OREGON INLT 2148 62 N/A 5/ 9 5/ 9 HATTERAS CG 2142 56 58 10/ 14/ 16 1013.1 DIAMOND BUOY 2150 63 71 20/ 21/ 25 1012.7 6/10 5/10 CAPE LOOKOUT 2200 360/ 13/ 17 1013.6 BEAUFORT LAB 2142 53 58 10/ 11/ 16 1013.4 30 SE NEW RVR IN 2108 58 66 50/ 17/ 21 1012.2 30 SE NEW RVR IN 2200 66 N/A 7/10 2/11 27 SE WRIGHTSVLE 2108 60 72 40/ 19/ 27 1012.4 5 SE WRIGHTSVLE 2108 58 63 20/ 12/ 16 1012.9 225 S CAPE HAT 2150 72 76 50/ 17/ 19 1009.5 10/ 8 7/ 8 41 SE CHARLESTON 2150 62 72 10/ 19/ 25 1011.6 8/10 7/10 $$

USA.gov is the U.S. government's official web portal to all federal, state and local government web resources and services.